Location: Springville
(37.3745°N, 89.2676°W)
Time: 00:35:32
(UTC+00:00)

CZ-4B R/B - Pass Details

Date: 29 October 2020
Orbit: 808 x 882 km, 99.1° (Epoch: 03 December)

Event Time Altitude Azimuth Distance (km) Brightness Sun altitude
Rises 23:25:59 0° 167° (SSE) 3,455 6.4 -5.5°
Reaches altitude 10° 23:28:23 10° 169° (S) 2,514 5.7 -6.0°
Maximum altitude 23:33:59 80° 256° (WSW) 879 3.5 -7.0°
Drops below altitude 10° 23:39:32 10° 344° (NNW) 2,486 5.7 -8.1°
Sets 23:41:53 0° 346° (NNW) 3,415 6.4 -8.6°
